Location: Saint-Hippolyte
(43.6394°N, 4.7559°E)
Time: 15:41:06
(UTC+00:00)

SeaSat 1 - Pass Details

Date: 24 October 2020
Orbit: 744 x 747 km, 108.0° (Epoch: 24 November)

Event Time Altitude Azimuth Distance (km) Brightness Sun altitude
Exits shadow 19:54:43 29° 265° (W) 1,340 4.1 -35.1°
Drops below altitude 10° 19:58:27 10° 313° (NW) 2,270 5.6 -35.7°
Sets 20:00:59 0° 324° (NW) 3,199 6.4 -36.2°
